Hourly Weather Barkowo

Today, 6 May, Thursday

Time Temperature Precipitation Wind Pressure Humidity
00:00 +2°C° 0.1 mm 8 mps 736 mmHg 83%
01:00 +2°C° 0 mm 8 mps 737 mmHg 86%
02:00 +2°C° 0.1 mm 8 mps 737 mmHg 81%
03:00 +1°C° 0.1 mm 9 mps 737 mmHg 76%
04:00 +1°C° 0.1 mm 9 mps 737 mmHg 71%
05:00 +1°C° 0 mm 9 mps 738 mmHg 71%
06:00 +2°C° 0 mm 8 mps 738 mmHg 70%
07:00 +2°C° 0 mm 8 mps 738 mmHg 70%
08:00 +4°C° 0 mm 8 mps 739 mmHg 65%
09:00 +5°C° 0 mm 8 mps 739 mmHg 59%
10:00 +6°C° 0 mm 8 mps 739 mmHg 54%
11:00 +7°C° 0 mm 8 mps 739 mmHg 48%
12:00 +9°C° 0 mm 8 mps 739 mmHg 42%
13:00 +10°C° 0 mm 8 mps 739 mmHg 37%
14:00 +9°C° 0.1 mm 8 mps 739 mmHg 42%
15:00 +9°C° 0.1 mm 7 mps 739 mmHg 47%
16:00 +8°C° 0.1 mm 6 mps 739 mmHg 53%
17:00 +7°C° 0.1 mm 5 mps 739 mmHg 58%
18:00 +6°C° 0.1 mm 4 mps 740 mmHg 64%
19:00 +5°C° 0.1 mm 3 mps 740 mmHg 70%
20:00 +4°C° 0 mm 3 mps 740 mmHg 74%
21:00 +4°C° 0 mm 2 mps 740 mmHg 78%
22:00 +3°C° 0 mm 2 mps 740 mmHg 82%
23:00 +3°C° 0 mm 2 mps 740 mmHg 82%

Tomorrow, 7 May, Friday

Time Temperature Precipitation Wind Pressure Humidity
00:00 +3°C° 0 mm 2 mps 740 mmHg 82%
01:00 +3°C° 0 mm 2 mps 740 mmHg 82%
02:00 +4°C° 0 mm 1 mps 739 mmHg 81%
03:00 +4°C° 0 mm 1 mps 739 mmHg 80%
04:00 +3°C° 0 mm 0 mps 739 mmHg 79%
05:00 +5°C° 0 mm 1 mps 739 mmHg 75%
06:00 +6°C° 0 mm 1 mps 739 mmHg 71%
07:00 +7°C° 0 mm 1 mps 739 mmHg 67%
08:00 +7°C° 0 mm 1 mps 739 mmHg 64%
09:00 +7°C° 0 mm 2 mps 740 mmHg 61%
10:00 +8°C° 0 mm 3 mps 740 mmHg 59%
11:00 +8°C° 0.1 mm 3 mps 740 mmHg 57%
12:00 +8°C° 0.1 mm 3 mps 740 mmHg 55%
13:00 +7°C° 0.1 mm 4 mps 740 mmHg 53%
14:00 +8°C° 0.1 mm 4 mps 741 mmHg 54%
15:00 +8°C° 0.1 mm 5 mps 741 mmHg 55%
16:00 +8°C° 0.1 mm 5 mps 741 mmHg 55%
17:00 +7°C° 0.1 mm 5 mps 742 mmHg 62%
18:00 +6°C° 0.1 mm 4 mps 743 mmHg 68%
19:00 +5°C° 0.1 mm 4 mps 743 mmHg 75%
20:00 +4°C° 0 mm 4 mps 744 mmHg 81%
21:00 +3°C° 0 mm 4 mps 744 mmHg 87%
22:00 +2°C° 0 mm 3 mps 745 mmHg 93%
23:00 +1°C° 0 mm 3 mps 745 mmHg 94%

Day after tomorrow, 8 May, Saturday

Time Temperature Precipitation Wind Pressure Humidity
00:00 +1°C° 0 mm 3 mps 746 mmHg 94%
01:00 +1°C° 0 mm 3 mps 746 mmHg 94%
02:00 +1°C° 0 mm 3 mps 746 mmHg 95%
03:00 0°C° 0 mm 3 mps 746 mmHg 96%
04:00 0°C° 0 mm 3 mps 747 mmHg 97%
05:00 0°C° 0 mm 4 mps 747 mmHg 91%
06:00 +3°C° 0 mm 4 mps 748 mmHg 86%
07:00 +3°C° 0 mm 5 mps 748 mmHg 81%
08:00 +5°C° 0 mm 5 mps 748 mmHg 78%
09:00 +5°C° 0 mm 5 mps 748 mmHg 76%
10:00 +6°C° 0 mm 5 mps 749 mmHg 73%
11:00 +6°C° 0 mm 5 mps 749 mmHg 71%
12:00 +6°C° 0 mm 5 mps 749 mmHg 69%
13:00 +6°C° 0 mm 5 mps 750 mmHg 68%
14:00 +8°C° 0 mm 4 mps 750 mmHg 61%
15:00 +10°C° 0 mm 4 mps 750 mmHg 54%
16:00 +11°C° 0 mm 3 mps 749 mmHg 47%
17:00 +9°C° 0 mm 3 mps 749 mmHg 52%
18:00 +8°C° 0 mm 2 mps 750 mmHg 58%
19:00 +8°C° 0 mm 1 mps 750 mmHg 64%
20:00 +7°C° 0 mm 1 mps 750 mmHg 67%
21:00 +5°C° 0 mm 2 mps 750 mmHg 70%
22:00 +4°C° 0 mm 2 mps 750 mmHg 72%
23:00 +4°C° 0 mm 2 mps 750 mmHg 73%

9 May, Sunday

Time Temperature Precipitation Wind Pressure Humidity
00:00 +4°C° 0 mm 2 mps 750 mmHg 74%
01:00 +3°C° 0 mm 3 mps 750 mmHg 75%
02:00 +3°C° 0 mm 3 mps 749 mmHg 74%
03:00 +3°C° 0 mm 4 mps 749 mmHg 73%
04:00 +4°C° 0 mm 4 mps 749 mmHg 71%
05:00 +5°C° 0 mm 4 mps 748 mmHg 70%
06:00 +6°C° 0 mm 5 mps 748 mmHg 68%
07:00 +8°C° 0 mm 5 mps 748 mmHg 67%
08:00 +9°C° 0 mm 5 mps 748 mmHg 63%
09:00 +11°C° 0 mm 6 mps 747 mmHg 60%
10:00 +14°C° 0 mm 6 mps 747 mmHg 57%
11:00 +15°C° 0 mm 6 mps 747 mmHg 54%
12:00 +17°C° 0 mm 6 mps 747 mmHg 51%
13:00 +19°C° 0 mm 6 mps 747 mmHg 48%
14:00 +19°C° 0 mm 6 mps 747 mmHg 51%
15:00 +19°C° 0 mm 6 mps 747 mmHg 55%
16:00 +19°C° 0 mm 5 mps 746 mmHg 58%
17:00 +17°C° 0 mm 5 mps 746 mmHg 65%
18:00 +17°C° 0 mm 4 mps 746 mmHg 72%
19:00 +14°C° 0 mm 4 mps 746 mmHg 79%
20:00 +14°C° 0 mm 4 mps 746 mmHg 82%
21:00 +13°C° 0 mm 4 mps 746 mmHg 85%
22:00 +12°C° 0 mm 4 mps 746 mmHg 88%
23:00 +11°C° 0 mm 4 mps 746 mmHg 88%

10 May, Monday

Time Temperature Precipitation Wind Pressure Humidity
00:00 +10°C° 0 mm 4 mps 746 mmHg 89%
01:00 +8°C° 0 mm 4 mps 747 mmHg 89%
02:00 +8°C° 0 mm 4 mps 746 mmHg 87%
03:00 +7°C° 0 mm 4 mps 746 mmHg 84%
04:00 +7°C° 0 mm 4 mps 746 mmHg 82%
05:00 +8°C° 0 mm 4 mps 746 mmHg 77%
06:00 +10°C° 0 mm 5 mps 746 mmHg 71%
07:00 +12°C° 0 mm 5 mps 746 mmHg 66%
08:00 +14°C° 0 mm 6 mps 746 mmHg 62%
09:00 +16°C° 0 mm 6 mps 746 mmHg 57%
10:00 +18°C° 0 mm 7 mps 746 mmHg 53%
11:00 +20°C° 0 mm 7 mps 746 mmHg 52%
12:00 +21°C° 0 mm 7 mps 746 mmHg 51%
13:00 +22°C° 0 mm 7 mps 745 mmHg 51%
14:00 +22°C° 0 mm 7 mps 746 mmHg 53%
15:00 +22°C° 0 mm 6 mps 746 mmHg 56%
16:00 +22°C° 0 mm 6 mps 746 mmHg 59%
17:00 +20°C° 0 mm 5 mps 746 mmHg 65%
18:00 +19°C° 0 mm 3 mps 746 mmHg 72%
19:00 +18°C° 0 mm 2 mps 745 mmHg 79%
20:00 +17°C° 0 mm 2 mps 745 mmHg 83%
21:00 +16°C° 0 mm 2 mps 746 mmHg 87%
22:00 +14°C° 0 mm 2 mps 746 mmHg 91%
23:00 +14°C° 0 mm 2 mps 745 mmHg 92%

11 May, Tuesday

Time Temperature Precipitation Wind Pressure Humidity
00:00 +13°C° 0 mm 3 mps 745 mmHg 94%
01:00 +12°C° 0 mm 3 mps 745 mmHg 95%
02:00 +12°C° 0 mm 3 mps 745 mmHg 94%
03:00 +12°C° 0 mm 4 mps 745 mmHg 94%
04:00 +12°C° 0 mm 4 mps 744 mmHg 93%
05:00 +13°C° 0 mm 4 mps 745 mmHg 87%
06:00 +15°C° 0 mm 5 mps 745 mmHg 82%
07:00 +16°C° 0 mm 5 mps 745 mmHg 76%
08:00 +17°C° 0 mm 6 mps 744 mmHg 71%
09:00 +20°C° 0 mm 6 mps 744 mmHg 65%
10:00 +22°C° 0 mm 7 mps 744 mmHg 59%
11:00 +22°C° 0 mm 6 mps 744 mmHg 58%
12:00 +23°C° 0 mm 6 mps 744 mmHg 57%
13:00 +24°C° 0 mm 6 mps 744 mmHg 55%
14:00 +24°C° 0 mm 6 mps 744 mmHg 58%
15:00 +25°C° 0 mm 5 mps 744 mmHg 61%
16:00 +25°C° 0 mm 5 mps 743 mmHg 63%
17:00 +22°C° 0 mm 4 mps 744 mmHg 68%
18:00 +21°C° 0 mm 3 mps 744 mmHg 73%
19:00 +20°C° 0 mm 2 mps 744 mmHg 78%
20:00 +19°C° 0 mm 2 mps 744 mmHg 82%
21:00 +18°C° 0 mm 2 mps 744 mmHg 87%
22:00 +18°C° 0 mm 1 mps 744 mmHg 91%
23:00 +16°C° 0 mm 2 mps 744 mmHg 92%
Show more